Weather in Ledec nad Sazavou

Czech Republic     49°41′47″N   15°16′41″E
temp.,
°C
wind,
m/s
gust,
m/s
humid.,
%
clouds,
%
prec.,
mm/h
press.,
hPa
HPBL,
m
7 march, sun
sun701:00−2sw12610 0.0 103022
04:00−3sw22610 0.0 102835
07:00−3ssw22590 0.0 102743
10:00+3wsw34410 0.0 1025586
13:00+5w35370 0.0 10221099
16:00+5nw354467 0.0 1020956
19:00−1sw116861 0.0 102021
22:00−2nw227614 0.0 102023
8 march, mon
mon801:00−3nw22957 0.0 102043
04:00−3wnw27951 0.0 1020255
07:00−2w259251 0.1 1021286
10:00+1nw3579100 0.3 1022623
13:00+2nw2469100 0.3 1022872
16:00+2nw236198 0.0 10211083
19:00−2nw017862 0.0 102222
22:00−3se118132 0.0 102321
9 march, tue
tue901:00−3sse248060 0.0 1022131
04:00−3s257495 0.0 1021189
07:00−2sse136697 0.0 1021156
10:00+1sse2360100 0.0 1021642
13:00+3s2359100 0.0 1020944
16:00+1wsw1194100 0.4 1019132
19:000nw1297100 1.1 1020174
22:00−1nw119598 0.0 1020139
10 march, wed
wed1001:00−1ne119798 0.3 102195
04:00−2n119893 0.3 102133
07:00−2nnw129690 0.4 102290
10:00+2nnw117987 0.1 1023442
13:00+4nnw126785 0.2 1023823
16:00+4nnw116789 0.1 1022917
19:000se128372 0.1 102321
22:00−1s35870 0.0 102399
11 march, thu
thu1101:00−1s379333 0.0 1021177
04:000s41186100 0.0 1018296
07:00+2s41282100 0.0 1016400
10:00+5sw71479100 1.3 1014833
13:00+9wsw71467100 1.3 10111253
16:00+9sw61572100 0.0 10091131
19:00+8sw51480100 0.1 1009978
22:00+7wsw41291100 0.2 1010932